Flag for Belgium Weather past 2 weeks in Leuven, Belgium

Now
66 °F

Passing clouds.


Feels Like: 66 °F
Forecast: 54 / 79 °F
Wind: 6 mph from Northwest

Location: Brussels National Airport

Current Time: Jul 31, 2014 at 11:18:36 PM

Latest Report: Jul 31, 2014 at 10:50 PM


Visibility: N/A

Pressure: 29.92 "Hg

Humidity: 68%

Dew point: 55 °F

Location of LeuvenLocation

Historic Weather in Leuven — Graph

°F

Leuven temperature yesterday

Maximum temperature yesterday: 72 °F (at 2:20 PM)
Minimum temperature yesterday: 59 °F (at 4:50 AM)
Average temperature yesterday: 65 °F

Past Weeks' High & Low Weather Summary

 TemperatureHumidityPressure
High90 °F (Jul 18, 3:50 PM)100% (Jul 21, 4:20 AM)30.18 "Hg (Jul 21, 4:20 AM)
Low54 °F (Jul 31, 1:20 AM)33% (Jul 19, 2:20 PM)29.77 "Hg (Jul 19, 8:20 PM)
Average69 °F74%29.97 "Hg
* Reported Jul 16 9:20 PM — Jul 31 9:50 PM, Leuven, Weather by CustomWeather, © 2014

Note: Actual official high and low records may vary slightly from our data, if they occured in-between our weather recording intervals... More about our weather records

Advertising

Leuven weather history for previous 24 hours

 ConditionsComfort  
Time TempWeatherWind HumidityBarometerVisibility
9:50 PM
Jul 31
68 °FSunny.3 mph64%29.92 "Hg10 mi
9:20 PM70 °FSunny.3 mph57%29.92 "Hg10 mi
8:50 PM70 °FSunny.2 mph64%29.92 "Hg10 mi
8:20 PM73 °FSunny.3 mph47%29.92 "Hg10 mi
7:50 PM75 °FSunny.5 mph41%29.92 "Hg10 mi
7:20 PM77 °FPassing clouds.6 mph39%29.92 "HgN/A
6:50 PM77 °FPassing clouds.5 mph42%29.92 "HgN/A
6:20 PM77 °FPassing clouds.3 mph42%29.92 "HgN/A
5:50 PM77 °FPassing clouds.6 mph44%29.95 "HgN/A
5:20 PM77 °FPassing clouds.3 mph44%29.95 "HgN/A
4:50 PM77 °FSunny.3 mph42%29.95 "Hg10 mi
4:20 PM77 °FPassing clouds.3 mph42%29.95 "HgN/A
3:50 PM77 °FPassing clouds.5 mph42%29.98 "HgN/A
3:20 PM77 °FPassing clouds.2 mph42%29.98 "HgN/A
2:50 PM75 °FPassing clouds.3 mph47%29.98 "HgN/A
2:20 PM73 °FPassing clouds.5 mph53%29.98 "HgN/A
1:50 PM73 °FPassing clouds.3 mph50%29.98 "HgN/A
1:20 PM72 °FPassing clouds.6 mph53%30.01 "HgN/A
12:50 PM72 °FPassing clouds.3 mph57%30.01 "HgN/A
12:20 PM70 °FPassing clouds.5 mph60%30.01 "HgN/A
11:50 AM70 °FPassing clouds.6 mph60%30.01 "HgN/A
11:20 AM68 °FPassing clouds.3 mph64%30.01 "HgN/A
10:50 AM68 °FPassing clouds.3 mph69%30.04 "HgN/A
10:20 AM66 °FPassing clouds.3 mph68%30.01 "HgN/A
9:50 AM64 °FPassing clouds.3 mph73%30.01 "HgN/A
9:20 AM64 °FPassing clouds.5 mph73%30.01 "HgN/A
8:50 AM63 °FPassing clouds.3 mph77%30.01 "HgN/A
8:20 AM61 °FSunny.5 mph83%30.01 "Hg10 mi
7:50 AM57 °FSunny.5 mph88%30.01 "Hg10 mi
7:20 AM55 °FSunny.5 mph94%30.01 "Hg10 mi
6:50 AM55 °FClear.6 mph88%30.01 "Hg10 mi
6:20 AM54 °FClear.5 mph88%30.01 "Hg10 mi
5:50 AM54 °FClear.3 mph88%30.01 "Hg10 mi
5:20 AM54 °FClear.5 mph88%30.01 "Hg10 mi
4:50 AM54 °FClear.5 mph88%30.01 "Hg10 mi
4:20 AM54 °FClear.3 mph88%30.01 "Hg10 mi
3:50 AM54 °FClear.3 mph94%30.04 "Hg10 mi
3:20 AM54 °FClear.3 mph94%30.01 "Hg10 mi
2:50 AM54 °FClear.2 mph94%30.04 "Hg10 mi
2:20 AM54 °FClear.1 mph94%30.04 "Hg10 mi
1:50 AM54 °FClear.1 mph94%30.04 "Hg10 mi
1:20 AM54 °FClear.2 mph94%30.04 "Hg10 mi
12:50 AM55 °FClear.1 mph88%30.01 "Hg10 mi
12:20 AM55 °FClear.No wind88%30.01 "Hg10 mi
11:50 PM
Jul 30
59 °FClear.2 mph77%30.04 "Hg10 mi
11:20 PM59 °FClear.3 mph77%30.01 "Hg10 mi
Weather by CustomWeather, © 2014

See weather overviewHow to use our weather pages